TimeHADT,TemperatureF,Dew PointF,Humidity,Sea Level PressureIn,VisibilityMPH,Wind Direction,Wind SpeedMPH,Gust SpeedMPH,PrecipitationIn,Events,Conditions,WindDirDegrees,DateUTC
12:16 AM,48.2,42.8,82,29.19,10.0,East,6.9,18.4,N/A,,Overcast,80,2012-10-12 09:16:00
12:36 AM,48.2,42.8,82,29.20,10.0,ESE,3.5,-,N/A,,Overcast,110,2012-10-12 09:36:00
12:56 AM,48.2,42.8,82,29.20,10.0,East,5.8,-,N/A,,Overcast,80,2012-10-12 09:56:00
1:16 AM,48.2,42.8,82,29.21,10.0,SSE,3.5,-,N/A,,Overcast,150,2012-10-12 10:16:00
1:36 AM,48.2,42.8,82,29.21,10.0,NW,5.8,-,N/A,,Overcast,310,2012-10-12 10:36:00
1:56 AM,48.2,42.8,82,29.21,10.0,WNW,5.8,-,N/A,,Overcast,300,2012-10-12 10:56:00
2:16 AM,48.2,42.8,82,29.21,10.0,Calm,Calm,-,N/A,,Overcast,0,2012-10-12 11:16:00
2:36 AM,48.2,42.8,82,29.22,10.0,North,5.8,16.1,N/A,,Overcast,10,2012-10-12 11:36:00
2:56 AM,48.2,42.8,82,29.22,10.0,South,11.5,18.4,N/A,,Overcast,170,2012-10-12 11:56:00
3:16 AM,48.2,42.8,82,29.22,10.0,Calm,Calm,-,N/A,,Overcast,0,2012-10-12 12:16:00
3:36 AM,48.2,42.8,82,29.23,10.0,NNW,6.9,-,N/A,,Overcast,340,2012-10-12 12:36:00
3:56 AM,48.2,42.8,82,29.23,10.0,NNE,6.9,-,N/A,,Overcast,30,2012-10-12 12:56:00
4:16 AM,48.2,42.8,82,29.23,10.0,WNW,6.9,-,N/A,,Overcast,290,2012-10-12 13:16:00
4:36 AM,48.2,42.8,82,29.24,10.0,North,10.4,21.9,N/A,,Overcast,350,2012-10-12 13:36:00
4:56 AM,48.2,42.8,82,29.24,10.0,NNE,15.0,18.4,N/A,,Overcast,30,2012-10-12 13:56:00
5:16 AM,46.4,42.8,87,29.25,10.0,Calm,Calm,-,N/A,,Overcast,0,2012-10-12 14:16:00
5:36 AM,46.4,42.8,87,29.25,10.0,NNE,5.8,-,N/A,,Overcast,30,2012-10-12 14:36:00
5:56 AM,48.2,42.8,82,29.26,10.0,ENE,12.7,16.1,N/A,,Overcast,60,2012-10-12 14:56:00
6:16 AM,46.4,42.8,87,29.26,10.0,ENE,13.8,18.4,N/A,,Overcast,60,2012-10-12 15:16:00
6:36 AM,46.4,42.8,87,29.27,10.0,NE,11.5,19.6,N/A,,Overcast,50,2012-10-12 15:36:00
6:56 AM,46.4,42.8,87,29.28,10.0,NE,11.5,17.3,N/A,,Overcast,40,2012-10-12 15:56:00
7:16 AM,46.4,42.8,87,29.28,10.0,NE,8.1,-,N/A,,Overcast,50,2012-10-12 16:16:00
7:36 AM,46.4,42.8,87,29.29,10.0,NNE,10.4,-,N/A,,Overcast,30,2012-10-12 16:36:00
7:56 AM,46.4,42.8,87,29.29,10.0,Calm,Calm,-,N/A,,Overcast,0,2012-10-12 16:56:00
8:16 AM,46.4,42.8,87,29.29,10.0,NNE,5.8,-,N/A,,Overcast,20,2012-10-12 17:16:00
8:36 AM,46.4,41.0,81,29.30,10.0,North,5.8,-,N/A,,Overcast,360,2012-10-12 17:36:00
8:56 AM,46.4,39.2,76,29.31,10.0,North,6.9,-,N/A,,Overcast,10,2012-10-12 17:56:00
9:36 AM,46.4,41.0,81,29.32,10.0,North,8.1,-,N/A,,Overcast,350,2012-10-12 18:36:00
9:56 AM,46.4,41.0,81,29.33,10.0,North,9.2,-,N/A,,Overcast,350,2012-10-12 18:56:00
10:16 AM,46.4,41.0,81,29.33,10.0,South,5.8,-,N/A,,Overcast,190,2012-10-12 19:16:00
10:36 AM,46.4,42.8,87,29.34,10.0,South,10.4,-,N/A,,Overcast,180,2012-10-12 19:36:00
10:56 AM,48.2,39.2,71,29.35,10.0,NW,3.5,-,N/A,,Overcast,310,2012-10-12 19:56:00
11:16 AM,48.2,39.2,71,29.36,10.0,Calm,Calm,-,N/A,,Overcast,0,2012-10-12 20:16:00
11:36 AM,48.2,41.0,76,29.36,10.0,SW,4.6,-,N/A,,Overcast,230,2012-10-12 20:36:00
11:56 AM,46.4,41.0,81,29.36,10.0,West,15.0,-,N/A,,Overcast,280,2012-10-12 20:56:00
12:16 PM,48.2,39.2,71,29.36,10.0,WNW,12.7,-,N/A,,Overcast,300,2012-10-12 21:16:00
12:36 PM,48.2,39.2,71,29.36,10.0,SSW,3.5,-,N/A,,Overcast,200,2012-10-12 21:36:00
12:56 PM,50.0,41.0,71,29.36,10.0,SSW,8.1,-,N/A,,Mostly Cloudy,210,2012-10-12 21:56:00
1:16 PM,50.0,41.0,71,29.36,10.0,SW,9.2,-,N/A,,Scattered Clouds,220,2012-10-12 22:16:00
1:36 PM,51.8,42.8,71,29.36,10.0,SW,15.0,-,N/A,,Scattered Clouds,220,2012-10-12 22:36:00
1:56 PM,51.8,42.8,71,29.37,10.0,SSW,12.7,-,N/A,,Clear,200,2012-10-12 22:56:00
2:16 PM,50.0,41.0,71,29.37,10.0,SSW,15.0,20.7,N/A,,Clear,210,2012-10-12 23:16:00
2:36 PM,50.0,41.0,71,29.39,10.0,South,10.4,-,N/A,,Partly Cloudy,190,2012-10-12 23:36:00
2:56 PM,48.2,39.2,71,29.40,10.0,SE,10.4,-,N/A,,Mostly Cloudy,140,2012-10-12 23:56:00
3:16 PM,50.0,37.4,62,29.39,10.0,NW,3.5,-,N/A,,Scattered Clouds,320,2012-10-13 00:16:00
3:36 PM,51.8,39.2,62,29.40,10.0,East,8.1,-,N/A,,Partly Cloudy,100,2012-10-13 00:36:00
3:56 PM,51.8,39.2,62,29.40,10.0,West,5.8,-,N/A,,Clear,280,2012-10-13 00:56:00
4:16 PM,51.8,39.2,62,29.40,10.0,West,4.6,-,N/A,,Clear,280,2012-10-13 01:16:00
4:36 PM,48.2,37.4,66,29.41,10.0,ENE,12.7,17.3,N/A,,Scattered Clouds,60,2012-10-13 01:36:00
4:56 PM,50.0,35.6,58,29.42,10.0,NE,11.5,-,N/A,,Mostly Cloudy,40,2012-10-13 01:56:00
5:16 PM,48.2,35.6,62,29.43,10.0,East,9.2,-,N/A,,Mostly Cloudy,100,2012-10-13 02:16:00
5:36 PM,46.4,35.6,66,29.45,10.0,Calm,Calm,-,N/A,,Mostly Cloudy,0,2012-10-13 02:36:00
5:56 PM,48.2,35.6,62,29.45,10.0,WSW,8.1,-,N/A,,Scattered Clouds,250,2012-10-13 02:56:00
6:16 PM,46.4,33.8,62,29.46,10.0,North,8.1,18.4,N/A,,Partly Cloudy,360,2012-10-13 03:16:00
6:36 PM,46.4,33.8,62,29.46,10.0,NNW,6.9,20.7,N/A,,Partly Cloudy,330,2012-10-13 03:36:00
6:56 PM,44.6,33.8,66,29.47,10.0,NE,9.2,27.6,N/A,,Clear,40,2012-10-13 03:56:00
7:16 PM,44.6,32.0,61,29.48,10.0,North,9.2,17.3,N/A,,Partly Cloudy,360,2012-10-13 04:16:00
7:36 PM,44.6,33.8,66,29.49,10.0,NNW,11.5,18.4,N/A,,Scattered Clouds,330,2012-10-13 04:36:00
7:56 PM,44.6,33.8,66,29.51,10.0,North,8.1,-,N/A,,Scattered Clouds,350,2012-10-13 04:56:00
8:16 PM,44.6,33.8,66,29.51,10.0,WNW,10.4,-,N/A,,Partly Cloudy,290,2012-10-13 05:16:00
9:16 PM,44.6,32.0,61,29.55,10.0,NE,6.9,-,N/A,,Scattered Clouds,40,2012-10-13 06:16:00
9:36 PM,44.6,32.0,61,29.54,10.0,North,13.8,24.2,N/A,,Partly Cloudy,10,2012-10-13 06:36:00
9:56 PM,44.6,32.0,61,29.55,10.0,WNW,15.0,-,N/A,,Scattered Clouds,300,2012-10-13 06:56:00
10:16 PM,42.8,32.0,66,29.56,10.0,NW,10.4,17.3,N/A,,Scattered Clouds,320,2012-10-13 07:16:00
10:36 PM,42.8,32.0,66,29.57,10.0,NNW,12.7,-,N/A,,Clear,330,2012-10-13 07:36:00
10:56 PM,42.8,30.2,61,29.58,10.0,North,8.1,-,N/A,,Clear,350,2012-10-13 07:56:00
11:16 PM,44.6,30.2,57,29.58,10.0,Calm,Calm,-,N/A,,Clear,0,2012-10-13 08:16:00
11:36 PM,42.8,30.2,61,29.58,10.0,WSW,3.5,-,N/A,,Clear,240,2012-10-13 08:36:00
11:56 PM,42.8,30.2,61,29.58,10.0,South,4.6,-,N/A,,Clear,180,2012-10-13 08:56:00